Warning: Javascript must be enabled to use all the features on this page!


Page Loading - Please Wait...

* We've detected you're using a mobile device. Find our Next Generation Station Page here.
Click to hideNews Bulletins

Peak Streamflow for the Nation

USGS 11058500 E TWIN C NR ARROWHEAD SPRINGS CA

San Bernardino County, California
Hydrologic Unit Code 18070203
Latitude  34°10'45", Longitude 117°15'53" NAD27
Drainage area 8.80  square miles
Gage datum 1,590 feet above NGVD29
Output formats
Table
Graph
Tab-separated file
peakfq (watstore) format
Reselect output format
Water
Year
Date Gage
Height
(feet)
Stream-
flow
(cfs)
1920 1920-02-22 3.10 162
1921 1921-03-14 3.70 360
1922 1922-01-02 3.87 408
1923 1922-12-14 2.95 121
1924 1924-03-27 2.35 70.0
1925 1924-11-10 1.80 26.0
1926 1926-04-07 3.50 228
1927 1927-02-16 4.35 480
1928 1928-02-04 2.60 74.0
1929 1929-04-04 2.80 130
1930 1930-05-03 2.37 34.0
1931 1931-04-26 2.76 38.0
1932 1931-12-28 3.75 300
1933 1933-01-29 2.37 27.0
1934 1934-01-01 3.35 240
1935 1934-12-14 3.00 118
1936 1936-02-02 3.30 212
1937 1937-02-06 4.15 492
1938 1938-03-02   3,3602
1939 1939-01-05 4.05 401
1940 1940-01-08 3.70 292
1941 1941-02-20 5.00 922
1942 1941-12-10 3.15 102
1943 1943-01-23 5.45 1,400
1944 1944-02-22 4.04 441
1945 1945-02-02 4.02 430
1946 1945-12-23 4.28 575
1947 1946-11-20 3.37 162
1948 1948-04-03 3.46 174
1949 1949-02-27 2.58 32.0
1950 1950-02-07 3.23 181
1951 1951-04-28 2.67 41.0
1952 1952-01-16 3.90 467
1953 1953-03-20 2.47 25.0
1954 1954-01-19   1,9002
1955 1954-11-11 4.39 1,280
1956 1956-01-26 3.88 521
1957 1957-05-19 3.10 117
1958 1958-04-03 3.35 495
1959 1959-02-16 2.73 48.0
1960 1960-02-08 2.38 22.0
1961 1960-11-06 2.55 29.0
1962 1962-02-09 2.98 101
1963 1963-09-18 2.67 37.0
1964 1964-04-01 2.38 19.0
1965 1965-04-10 3.15 114
1966 1965-11-22 5.41 830
1967 1966-12-06 5.80 1,250
1968 1968-03-08 3.04 101
1969 1969-01-25 7.45 2,300
1970 1970-03-02 2.69 39.0
1971 1970-11-29 3.46 211
1972 1971-12-24 3.78 323
1973 1973-02-11 3.81 264
1974 1974-01-07 3.77 163
1975 1974-12-04   40.0
1976 1976-09-11 3.79 311
1977 1976-10-22 6.56 1,880
1978 1978-03-04 7.67 1,480
1979 1979-03-28 3.84 100
1980 1980-01-29 8.35 3,710
1981 1981-04-18   1,960
1982 1982-03-17 4.59 331
1983 1983-02-27 5.89 938
1984 1983-10-01 3.77 231
1985 1984-12-19 3.50 156
1986 1986-02-15 3.84 245
1987 1987-01-04 3.76 211
1988 1988-03-01 3.01 86.0
1989 1989-02-04 3.21 122
1990 1990-04-17 4.06 330
1991 1991-03-01 4.82 646
1992 1992-02-12 5.18 843
1993 1993-01-07 8.07  
1994 1994-02-08 2.83 68.0
1995 1995-03-05 5.66 1,160
1996 1996-02-20 5.47  
1998 1998-02-23 6.90  
1999 1999-04-07 2.43 29.0
2000 2000-02-23 2.98 69.0
2001 2001-02-12 2.90 57.0
2002 2001-11-24 2.11 14.0
2004 2003-12-25 11.49 6,000
2005 2004-10-20 10.94 1,190
2006 2006-01-02 6.48 703
2007 2006-10-14 2.56 36.0
2008 2008-01-05 4.77 622
2009 2009-02-16 3.84 147
2010 2010-02-06 6.87 1,470
2011 2010-12-22 8.605 2,1202
2012 2011-10-05 3.60 65.0
2013 2012-12-13 3.22 38.0
2014 2013-11-21 4.53 255
2015 2014-12-04 3.27 84.0
2016 2016-01-31 2.98 33.0
2017 2017-01-22 6.47 338
2018 2018-01-09 3.20 33.8
2019 2019-02-14 6.34 320
2020 2020-04-06 4.18 81.0
?
  Peak Gage-Height Qualification Codes.
?
  Peak Streamflow Qualification Codes.